Orbital Elements at Epoch 2459000.5 (2020-May-31.0) TDB
Reference: JPL 14 (heliocentric ecliptic J2000)
Element | Value | Uncertainty (1-sigma) | Units |
e | .2347462310065963 | 8.5135e-08 | |
a | 2.211357059725163 | 1.4655e-08 | au |
q | 1.692249324544853 | 1.9188e-07 | au |
i | 7.716349514257574 | 9.2623e-06 | deg |
node | 33.32278502758024 | 6.2431e-05 | deg |
peri | 190.7698036899337 | 6.6966e-05 | deg |
M | 285.3551947881907 | 2.9821e-05 | deg |
tp | 2459249.548438690625 (2021-Feb-04.04843869) | 0.00010131 | TDB |
period | 1201.120930977264 3.29 | 1.194e-05 3.269e-08 | d yr |
n | .2997200287793622 | 2.9794e-09 | deg/d |
Q | 2.730464794905474 | 1.8095e-08 | au |
|
| | Orbit Determination Parameters
Additional Information
|